| time (UTC) | temp C | wind direction | speed KPH | gust KPH | rain 1hr cm | rain 24hr cm | rain mn cm | humidity % | barometer mb |
| 20260505122046 | 14 | 50 | 0.0 | 3.2 | 0.00 | 0.00 | 0.00 | 76 | 1018.7 |
| 20260505121546 | 14 | 319 | 0.0 | 3.2 | 0.00 | 0.00 | 0.00 | 76 | 1018.7 |
| 20260505121045 | 14 | 322 | 0.0 | 1.6 | 0.00 | 0.00 | 0.00 | 76 | 1018.7 |
| 20260505120545 | 14 | 336 | 0.0 | 1.6 | 0.00 | 0.00 | 0.00 | 76 | 1018.7 |
| 20260505120043 | 14 | 310 | 0.0 | 1.6 | 0.00 | 0.00 | 0.00 | 76 | 1018.8 |
| 20260505115546 | 14 | 19 | 0.0 | 1.6 | 0.00 | 0.00 | 0.00 | 75 | 1018.8 |
| 20260505115044 | 14 | 3 | 0.0 | 1.6 | 0.00 | 0.00 | 0.00 | 75 | 1018.8 |
| 20260505114643 | 14 | 5 | 0.0 | 0.0 | 0.00 | 0.00 | 0.00 | 75 | 1018.8 |
| 20260505114043 | 14 | 2 | 0.0 | 4.8 | 0.00 | 0.00 | 0.00 | 75 | 1018.8 |
| 20260505113542 | 14 | 360 | 0.0 | 1.6 | 0.00 | 0.00 | 0.00 | 75 | 1018.8 |
| 20260505113043 | 14 | 327 | 0.0 | 1.6 | 0.00 | 0.00 | 0.00 | 75 | 1018.7 |
| 20260505112542 | 14 | 346 | 0.0 | 3.2 | 0.00 | 0.00 | 0.00 | 75 | 1018.7 |
| 20260505112042 | 14 | 303 | 0.0 | 3.2 | 0.00 | 0.00 | 0.00 | 74 | 1018.8 |
| 20260505111551 | 14 | 6 | 0.0 | 3.2 | 0.00 | 0.00 | 0.00 | 74 | 1018.7 |
| 20260505111042 | 14 | 339 | 0.0 | 4.8 | 0.00 | 0.00 | 0.00 | 74 | 1018.7 |
| 20260505110542 | 14 | 327 | 0.0 | 4.8 | 0.00 | 0.00 | 0.00 | 74 | 1018.7 |
| 20260505102039 | 15 | 267 | 0.0 | 1.6 | 0.00 | 0.00 | 0.00 | 73 | 1018.6 |
| 20260505101539 | 15 | 331 | 0.0 | 4.8 | 0.00 | 0.00 | 0.00 | 73 | 1018.6 |
| 20260505101042 | 15 | 16 | 0.0 | 4.8 | 0.00 | 0.00 | 0.00 | 73 | 1018.6 |
| 20260505100542 | 15 | 22 | 0.0 | 4.8 | 0.00 | 0.00 | 0.00 | 73 | 1018.6 |
| 20260505100048 | 14 | 335 | 0.0 | 4.8 | 0.00 | 0.00 | 0.00 | 72 | 1018.6 |
| 20260505095543 | 14 | 310 | 0.0 | 3.2 | 0.00 | 0.03 | 0.00 | 72 | 1018.6 |
| 20260505095037 | 14 | 338 | 0.0 | 1.6 | 0.00 | 0.03 | 0.00 | 71 | 1018.6 |
| 20260505094537 | 14 | 336 | 0.0 | 1.6 | 0.00 | 0.03 | 0.00 | 71 | 1018.6 |
| 20260505093538 | 14 | 351 | 0.0 | 0.0 | 0.00 | 0.03 | 0.00 | 71 | 1018.6 |
| 20260505093039 | 14 | 351 | 0.0 | 1.6 | 0.00 | 0.03 | 0.00 | 71 | 1018.6 |
| 20260505092537 | 14 | 34 | 0.0 | 1.6 | 0.00 | 0.03 | 0.00 | 72 | 1018.6 |
| 20260505092036 | 14 | 34 | 0.0 | 1.6 | 0.00 | 0.03 | 0.00 | 72 | 1018.5 |
| 20260505091551 | 14 | 34 | 0.0 | 1.6 | 0.00 | 0.03 | 0.00 | 72 | 1018.5 |
| 20260505091039 | 14 | 359 | 0.0 | 1.6 | 0.00 | 0.03 | 0.00 | 73 | 1018.5 |
| 20260505090538 | 14 | 324 | 0.0 | 1.6 | 0.00 | 0.03 | 0.00 | 73 | 1018.5 |
| 20260505090050 | 14 | 324 | 0.0 | 0.0 | 0.00 | 0.03 | 0.00 | 73 | 1018.3 |
| 20260505085536 | 14 | 324 | 0.0 | 1.6 | 0.00 | 0.03 | 0.00 | 73 | 1018.4 |
| 20260505085035 | 14 | 324 | 0.0 | 1.6 | 0.00 | 0.03 | 0.00 | 74 | 1018.4 |
| 20260505084537 | 14 | 310 | 0.0 | 1.6 | 0.00 | 0.03 | 0.00 | 74 | 1018.4 |
| 20260505084034 | 14 | 307 | 0.0 | 1.6 | 0.00 | 0.03 | 0.00 | 74 | 1018.4 |
| 20260505083534 | 14 | 1 | 0.0 | 0.0 | 0.00 | 0.03 | 0.00 | 75 | 1018.3 |
| 20260505083042 | 14 | 1 | 0.0 | 0.0 | 0.00 | 0.03 | 0.00 | 75 | 1018.3 |
| 20260505082533 | 14 | 1 | 0.0 | 0.0 | 0.00 | 0.03 | 0.00 | 75 | 1018.2 |
| 20260505082032 | 14 | 1 | 0.0 | 0.0 | 0.00 | 0.03 | 0.00 | 75 | 1018.1 |
| 20260505081549 | 14 | 1 | 0.0 | 0.0 | 0.00 | 0.03 | 0.00 | 75 | 1018.1 |
| 20260505081032 | 14 | 1 | 0.0 | 0.0 | 0.00 | 0.03 | 0.00 | 74 | 1018.0 |
| 20260505080534 | 14 | 1 | 0.0 | 0.0 | 0.00 | 0.03 | 0.00 | 74 | 1018.0 |
| 20260505080041 | 14 | 1 | 0.0 | 0.0 | 0.00 | 0.03 | 0.00 | 74 | 1017.9 |
| 20260505075530 | 14 | 1 | 0.0 | 0.0 | 0.00 | 0.03 | 0.00 | 74 | 1017.8 |
| 20260505075029 | 14 | 1 | 0.0 | 0.0 | 0.00 | 0.03 | 0.00 | 74 | 1017.9 |
| 20260505074528 | 14 | 1 | 0.0 | 1.6 | 0.00 | 0.03 | 0.00 | 74 | 1017.8 |
| 20260505074028 | 14 | 1 | 0.0 | 1.6 | 0.00 | 0.03 | 0.00 | 74 | 1017.7 |
| 20260505073028 | 15 | 348 | 0.0 | 0.0 | 0.00 | 0.03 | 0.00 | 73 | 1017.6 |
| 20260505072527 | 15 | 348 | 0.0 | 0.0 | 0.00 | 0.03 | 0.00 | 73 | 1017.6 |
| 20260505072027 | 15 | 348 | 0.0 | 1.6 | 0.00 | 0.03 | 0.00 | 73 | 1017.6 |
| 20260505071529 | 15 | 350 | 0.0 | 1.6 | 0.00 | 0.03 | 0.00 | 73 | 1017.5 |
| 20260505071026 | 15 | 298 | 0.0 | 1.6 | 0.00 | 0.03 | 0.00 | 73 | 1017.5 |
| 20260505070525 | 15 | 288 | 0.0 | 1.6 | 0.00 | 0.03 | 0.00 | 72 | 1017.4 |
| 20260505070027 | 15 | 290 | 0.0 | 1.6 | 0.00 | 0.03 | 0.00 | 72 | 1017.4 |
| 20260505065524 | 15 | 12 | 0.0 | 3.2 | 0.00 | 0.03 | 0.00 | 73 | 1017.4 |
| 20260505065024 | 15 | 277 | 0.0 | 3.2 | 0.00 | 0.03 | 0.00 | 72 | 1017.4 |
| 20260505064524 | 15 | 285 | 0.0 | 1.6 | 0.00 | 0.03 | 0.00 | 72 | 1017.4 |
| 20260505064026 | 15 | 299 | 0.0 | 3.2 | 0.00 | 0.03 | 0.00 | 72 | 1017.4 |
| 20260505063523 | 15 | 303 | 0.0 | 6.4 | 0.00 | 0.03 | 0.00 | 72 | 1017.4 |
| 20260505063033 | 15 | 291 | 1.6 | 6.4 | 0.00 | 0.03 | 0.00 | 72 | 1017.3 |
| 20260505062523 | 15 | 300 | 1.6 | 6.4 | 0.00 | 0.03 | 0.00 | 72 | 1017.3 |
| 20260505062024 | 15 | 298 | 0.0 | 3.2 | 0.00 | 0.03 | 0.00 | 72 | 1017.3 |
| 20260505061530 | 15 | 296 | 0.0 | 4.8 | 0.00 | 0.03 | 0.00 | 71 | 1017.3 |
| 20260505061022 | 15 | 303 | 0.0 | 4.8 | 0.00 | 0.03 | 0.00 | 71 | 1017.3 |
| 20260505060522 | 15 | 275 | 0.0 | 3.2 | 0.00 | 0.03 | 0.00 | 71 | 1017.2 |
| 20260505060022 | 15 | 317 | 0.0 | 3.2 | 0.00 | 0.03 | 0.00 | 70 | 1017.3 |
| 20260505055521 | 15 | 284 | 0.0 | 3.2 | 0.00 | 0.03 | 0.00 | 70 | 1017.2 |
| 20260505055023 | 15 | 350 | 0.0 | 4.8 | 0.00 | 0.03 | 0.00 | 70 | 1017.1 |
| 20260505054524 | 15 | 296 | 1.6 | 8.0 | 0.00 | 0.03 | 0.00 | 70 | 1017.1 |
| 20260505054020 | 15 | 277 | 0.0 | 8.0 | 0.00 | 0.03 | 0.00 | 69 | 1017.0 |
| 20260505053520 | 15 | 322 | 0.0 | 4.8 | 0.00 | 0.03 | 0.00 | 69 | 1017.0 |
| 20260505053020 | 15 | 292 | 0.0 | 6.4 | 0.00 | 0.03 | 0.00 | 69 | 1017.0 |
| 20260505052519 | 15 | 277 | 0.0 | 6.4 | 0.00 | 0.03 | 0.00 | 69 | 1016.9 |
| 20260505052019 | 15 | 296 | 0.0 | 4.8 | 0.00 | 0.03 | 0.00 | 69 | 1016.9 |
| 20260505051520 | 15 | 281 | 1.6 | 8.0 | 0.00 | 0.03 | 0.00 | 68 | 1016.8 |
| 20260505051019 | 15 | 324 | 1.6 | 12.9 | 0.00 | 0.03 | 0.00 | 68 | 1016.8 |
| 20260505050518 | 15 | 287 | 4.8 | 12.9 | 0.00 | 0.03 | 0.00 | 68 | 1016.8 |
| 20260505041517 | 15 | 275 | 1.6 | 9.7 | 0.00 | 0.03 | 0.00 | 66 | 1016.4 |
| 20260505041017 | 15 | 282 | 1.6 | 9.7 | 0.00 | 0.03 | 0.00 | 66 | 1016.4 |
| 20260505040517 | 16 | 284 | 1.6 | 6.4 | 0.00 | 0.03 | 0.00 | 67 | 1016.4 |
| 20260505040017 | 16 | 262 | 1.6 | 9.7 | 0.00 | 0.03 | 0.00 | 66 | 1016.4 |
| 20260505035516 | 15 | 166 | 0.0 | 9.7 | 0.00 | 0.03 | 0.00 | 66 | 1016.3 |
| 20260505035016 | 15 | 284 | 1.6 | 8.0 | 0.00 | 0.03 | 0.00 | 66 | 1016.3 |
| 20260505034518 | 15 | 275 | 0.0 | 8.0 | 0.00 | 0.03 | 0.00 | 67 | 1016.3 |
| 20260505034018 | 15 | 329 | 1.6 | 8.0 | 0.00 | 0.03 | 0.00 | 67 | 1016.3 |
| 20260505033520 | 15 | 153 | 3.2 | 16.1 | 0.00 | 0.03 | 0.00 | 67 | 1016.4 |
| 20260505033028 | 15 | 310 | 3.2 | 11.3 | 0.00 | 0.03 | 0.00 | 68 | 1016.3 |
| 20260505032516 | 15 | 279 | 3.2 | 12.9 | 0.00 | 0.03 | 0.00 | 68 | 1016.3 |
| 20260505032017 | 15 | 294 | 4.8 | 17.7 | 0.00 | 0.03 | 0.00 | 68 | 1016.4 |
| 20260505031515 | 15 | 294 | 3.2 | 17.7 | 0.00 | 0.03 | 0.00 | 69 | 1016.4 |
| 20260505031015 | 15 | 286 | 4.8 | 14.5 | 0.00 | 0.03 | 0.00 | 68 | 1016.4 |
| 20260505030515 | 15 | 261 | 4.8 | 14.5 | 0.00 | 0.03 | 0.00 | 68 | 1016.5 |
| 20260505030015 | 15 | 306 | 3.2 | 12.9 | 0.00 | 0.03 | 0.00 | 67 | 1016.4 |
| 20260505025517 | 15 | 290 | 1.6 | 9.7 | 0.00 | 0.03 | 0.00 | 67 | 1016.4 |
| 20260505025014 | 15 | 279 | 0.0 | 8.0 | 0.00 | 0.03 | 0.00 | 69 | 1016.5 |
| 20260505024530 | 15 | 273 | 1.6 | 9.7 | 0.00 | 0.03 | 0.00 | 68 | 1016.5 |
| 20260505024017 | 15 | 341 | 0.0 | 14.5 | 0.00 | 0.03 | 0.00 | 69 | 1016.5 |
| 20260505023516 | 15 | 293 | 3.2 | 12.9 | 0.00 | 0.03 | 0.00 | 69 | 1016.6 |
| 20260505023014 | 15 | 308 | 4.8 | 12.9 | 0.00 | 0.03 | 0.00 | 68 | 1016.6 |
| 20260505022014 | 15 | 272 | 3.2 | 14.5 | 0.00 | 0.03 | 0.00 | 68 | 1016.6 |
| 20260505021528 | 15 | 275 | 3.2 | 11.3 | 0.00 | 0.03 | 0.00 | 67 | 1016.6 |
| 20260505021013 | 15 | 282 | 1.6 | 14.5 | 0.00 | 0.03 | 0.00 | 68 | 1016.6 |
| 20260505020513 | 15 | 285 | 6.4 | 16.1 | 0.00 | 0.03 | 0.00 | 66 | 1016.7 |
| 20260505020013 | 16 | 263 | 4.8 | 14.5 | 0.00 | 0.03 | 0.00 | 66 | 1016.8 |
| 20260505015517 | 16 | 296 | 3.2 | 11.3 | 0.00 | 0.03 | 0.00 | 65 | 1016.8 |
| 20260505015010 | 16 | 80 | 1.6 | 11.3 | 0.00 | 0.03 | 0.00 | 66 | 1016.8 |
| 20260505014510 | 16 | 294 | 3.2 | 9.7 | 0.00 | 0.03 | 0.00 | 66 | 1016.8 |
| 20260505014009 | 16 | 294 | 3.2 | 11.3 | 0.00 | 0.03 | 0.00 | 65 | 1016.9 |
| 20260505013508 | 16 | 313 | 3.2 | 11.3 | 0.00 | 0.03 | 0.00 | 65 | 1016.9 |
| 20260505013008 | 15 | 267 | 3.2 | 11.3 | 0.00 | 0.03 | 0.00 | 67 | 1017.0 |
| 20260505012512 | 15 | 20 | 4.8 | 11.3 | 0.00 | 0.03 | 0.00 | 67 | 1017.0 |
| 20260505012009 | 15 | 352 | 3.2 | 14.5 | 0.00 | 0.03 | 0.00 | 67 | 1017.0 |
| 20260505011508 | 15 | 50 | 3.2 | 14.5 | 0.00 | 0.03 | 0.00 | 68 | 1017.0 |
| 20260505011008 | 15 | 255 | 3.2 | 11.3 | 0.00 | 0.03 | 0.00 | 68 | 1017.0 |
| 20260505010507 | 15 | 20 | 3.2 | 11.3 | 0.00 | 0.03 | 0.00 | 69 | 1017.0 |
| 20260505010006 | 15 | 246 | 3.2 | 9.7 | 0.00 | 0.03 | 0.00 | 69 | 1017.0 |
| 20260505005505 | 15 | 267 | 1.6 | 12.9 | 0.00 | 0.03 | 0.00 | 70 | 1016.9 |
| 20260505005005 | 15 | 279 | 1.6 | 11.3 | 0.00 | 0.03 | 0.00 | 70 | 1016.9 |
| 20260505004510 | 15 | 298 | 1.6 | 12.9 | 0.00 | 0.03 | 0.00 | 70 | 1016.8 |
| 20260505004003 | 15 | 319 | 3.2 | 12.9 | 0.00 | 0.03 | 0.00 | 69 | 1016.8 |
| 20260505003503 | 15 | 249 | 1.6 | 12.9 | 0.00 | 0.03 | 0.00 | 69 | 1016.8 |
| 20260505003003 | 15 | 278 | 1.6 | 9.7 | 0.00 | 0.03 | 0.00 | 71 | 1016.7 |
| 20260505002503 | 15 | 278 | 3.2 | 16.1 | 0.00 | 0.03 | 0.00 | 69 | 1016.6 |
| 20260505001502 | 15 | 335 | 3.2 | 12.9 | 0.00 | 0.03 | 0.00 | 70 | 1016.6 |
| 20260505001100 | 15 | 22 | 3.2 | 11.3 | 0.00 | 0.03 | 0.00 | 72 | 1016.5 |
| 20260505000559 | 15 | 275 | 3.2 | 12.9 | 0.00 | 0.03 | 0.00 | 72 | 1016.5 |
| 20260505000059 | 15 | 267 | 3.2 | 14.5 | 0.00 | 0.03 | 0.00 | 72 | 1016.5 |
| 20260504235557 | 15 | 38 | 3.2 | 14.5 | 0.00 | 0.03 | 0.00 | 73 | 1016.4 |
| 20260504235056 | 14 | 318 | 4.8 | 14.5 | 0.00 | 0.03 | 0.00 | 74 | 1016.4 |
| 20260504234557 | 14 | 283 | 3.2 | 16.1 | 0.00 | 0.03 | 0.00 | 75 | 1016.4 |
| 20260504234056 | 14 | 269 | 3.2 | 16.1 | 0.00 | 0.03 | 0.00 | 75 | 1016.3 |
| 20260504233557 | 13 | 347 | 4.8 | 14.5 | 0.00 | 0.03 | 0.00 | 76 | 1016.3 |
| 20260504233101 | 13 | 252 | 4.8 | 14.5 | 0.00 | 0.03 | 0.00 | 75 | 1016.3 |
| 20260504232556 | 13 | 272 | 3.2 | 11.3 | 0.00 | 0.03 | 0.00 | 75 | 1016.3 |
| 20260504232054 | 14 | 331 | 1.6 | 11.3 | 0.00 | 0.03 | 0.00 | 76 | 1016.2 |
| 20260504231554 | 13 | 305 | 1.6 | 11.3 | 0.00 | 0.03 | 0.00 | 77 | 1016.2 |
| 20260504231053 | 13 | 12 | 3.2 | 12.9 | 0.00 | 0.03 | 0.00 | 77 | 1016.1 |
| 20260504230552 | 13 | 316 | 3.2 | 12.9 | 0.00 | 0.03 | 0.00 | 78 | 1016.0 |
| 20260504230052 | 13 | 327 | 1.6 | 11.3 | 0.00 | 0.03 | 0.00 | 79 | 1015.9 |
| 20260504225552 | 13 | 14 | 1.6 | 12.9 | 0.00 | 0.03 | 0.00 | 79 | 1015.8 |
| 20260504225051 | 13 | 334 | 1.6 | 12.9 | 0.00 | 0.03 | 0.00 | 80 | 1015.9 |
| 20260504224550 | 13 | 57 | 1.6 | 11.3 | 0.00 | 0.03 | 0.00 | 81 | 1015.8 |
| 20260504224050 | 13 | 1 | 3.2 | 11.3 | 0.00 | 0.03 | 0.00 | 81 | 1015.8 |
| 20260504223550 | 13 | 135 | 3.2 | 8.0 | 0.00 | 0.03 | 0.00 | 82 | 1015.7 |
| 20260504223054 | 12 | 281 | 3.2 | 8.0 | 0.00 | 0.03 | 0.00 | 83 | 1015.6 |
| 20260504222547 | 12 | 30 | 1.6 | 8.0 | 0.00 | 0.03 | 0.00 | 83 | 1015.6 |
| 20260504222049 | 12 | 277 | 1.6 | 8.0 | 0.00 | 0.03 | 0.00 | 84 | 1015.5 |
| 20260504221046 | 12 | 305 | 0.0 | 6.4 | 0.00 | 0.03 | 0.00 | 84 | 1015.2 |
| 20260504220545 | 12 | 305 | 0.0 | 8.0 | 0.00 | 0.03 | 0.00 | 85 | 1015.0 |
| 20260504215543 | 12 | 322 | 1.6 | 12.9 | 0.00 | 0.03 | 0.00 | 85 | 1014.9 |
| 20260504215042 | 12 | 324 | 3.2 | 12.9 | 0.00 | 0.03 | 0.00 | 85 | 1014.9 |
| 20260504214544 | 12 | 327 | 0.0 | 8.0 | 0.00 | 0.03 | 0.00 | 85 | 1014.8 |
| 20260504214041 | 12 | 329 | 1.6 | 11.3 | 0.00 | 0.03 | 0.00 | 85 | 1014.7 |
| 20260504213541 | 12 | 330 | 0.0 | 8.0 | 0.00 | 0.03 | 0.00 | 86 | 1014.6 |
| 20260504213040 | 12 | 288 | 1.6 | 8.0 | 0.00 | 0.03 | 0.00 | 86 | 1014.5 |
| 20260504212542 | 12 | 319 | 0.0 | 3.2 | 0.00 | 0.03 | 0.00 | 85 | 1014.4 |
| 20260504212040 | 12 | 296 | 0.0 | 6.4 | 0.00 | 0.03 | 0.00 | 85 | 1014.2 |
| 20260504211537 | 12 | 342 | 1.6 | 9.7 | 0.00 | 0.03 | 0.00 | 85 | 1014.1 |
| 20260504211036 | 12 | 334 | 1.6 | 9.7 | 0.00 | 0.03 | 0.00 | 85 | 1014.0 |
| 20260504210536 | 12 | 331 | 0.0 | 8.0 | 0.00 | 0.03 | 0.00 | 84 | 1014.0 |
| 20260504210036 | 12 | 348 | 0.0 | 6.4 | 0.00 | 0.03 | 0.00 | 84 | 1013.9 |
| 20260504205535 | 12 | 348 | 0.0 | 8.0 | 0.00 | 0.03 | 0.00 | 84 | 1013.8 |
| 20260504205036 | 12 | 354 | 1.6 | 11.3 | 0.00 | 0.03 | 0.00 | 84 | 1013.9 |
| 20260504204551 | 12 | 336 | 3.2 | 11.3 | 0.00 | 0.03 | 0.00 | 84 | 1013.9 |
| 20260504204034 | 12 | 327 | 3.2 | 16.1 | 0.00 | 0.03 | 0.00 | 85 | 1013.7 |
| 20260504203534 | 12 | 329 | 1.6 | 16.1 | 0.00 | 0.03 | 0.00 | 85 | 1013.6 |
| 20260504203033 | 12 | 328 | 1.6 | 11.3 | 0.00 | 0.03 | 0.00 | 85 | 1013.6 |
| 20260504202532 | 12 | 14 | 0.0 | 11.3 | 0.00 | 0.03 | 0.00 | 85 | 1013.5 |
| 20260504202030 | 12 | 326 | 0.0 | 8.0 | 0.00 | 0.03 | 0.00 | 85 | 1013.4 |
| 20260504201531 | 12 | 304 | 1.6 | 8.0 | 0.00 | 0.03 | 0.00 | 85 | 1013.3 |
| 20260504200534 | 12 | 51 | 0.0 | 8.0 | 0.00 | 0.03 | 0.00 | 85 | 1013.2 |
| 20260504200028 | 12 | 326 | 1.6 | 8.0 | 0.00 | 0.03 | 0.00 | 85 | 1013.1 |
| 20260504195527 | 12 | 23 | 1.6 | 9.7 | 0.00 | 0.03 | 0.00 | 85 | 1013.1 |
| 20260504195027 | 12 | 40 | 1.6 | 9.7 | 0.00 | 0.03 | 0.00 | 85 | 1013.0 |
| 20260504194531 | 12 | 308 | 3.2 | 9.7 | 0.00 | 0.03 | 0.00 | 85 | 1013.0 |
| 20260504194026 | 12 | 360 | 1.6 | 8.0 | 0.00 | 0.03 | 0.00 | 84 | 1012.9 |
| 20260504193526 | 12 | 342 | 1.6 | 8.0 | 0.00 | 0.03 | 0.00 | 84 | 1012.8 |
| 20260504193025 | 12 | 335 | 1.6 | 11.3 | 0.00 | 0.03 | 0.00 | 84 | 1012.8 |
| 20260504192524 | 12 | 345 | 1.6 | 11.3 | 0.00 | 0.03 | 0.00 | 83 | 1012.7 |
| 20260504192023 | 12 | 320 | 3.2 | 11.3 | 0.00 | 0.03 | 0.00 | 83 | 1012.7 |
| 20260504191523 | 13 | 11 | 1.6 | 11.3 | 0.00 | 0.03 | 0.00 | 83 | 1012.7 |
| 20260504191022 | 13 | 52 | 1.6 | 11.3 | 0.00 | 0.03 | 0.00 | 83 | 1012.6 |
| 20260504190523 | 13 | 329 | 3.2 | 8.0 | 0.00 | 0.03 | 0.00 | 83 | 1012.6 |
| 20260504190025 | 13 | 33 | 0.0 | 6.4 | 0.00 | 0.03 | 0.00 | 83 | 1012.5 |
| 20260504185520 | 13 | 354 | 1.6 | 8.0 | 0.00 | 0.03 | 0.00 | 83 | 1012.4 |
| 20260504185020 | 13 | 205 | 1.6 | 8.0 | 0.00 | 0.03 | 0.00 | 83 | 1012.3 |
| 20260504184523 | 12 | 301 | 1.6 | 8.0 | 0.00 | 0.03 | 0.00 | 83 | 1012.3 |
| 20260504184019 | 12 | 13 | 1.6 | 6.4 | 0.00 | 0.03 | 0.00 | 83 | 1012.2 |
| 20260504183519 | 12 | 59 | 0.0 | 8.0 | 0.00 | 0.03 | 0.00 | 83 | 1012.2 |
| 20260504183018 | 12 | 322 | 1.6 | 8.0 | 0.00 | 0.03 | 0.00 | 83 | 1012.0 |
| 20260504182517 | 12 | 305 | 1.6 | 8.0 | 0.00 | 0.03 | 0.00 | 83 | 1012.0 |
| 20260504182016 | 12 | 311 | 1.6 | 9.7 | 0.00 | 0.03 | 0.00 | 83 | 1011.9 |
| 20260504181516 | 12 | 2 | 1.6 | 9.7 | 0.00 | 0.03 | 0.00 | 83 | 1011.8 |
| 20260504181015 | 12 | 312 | 1.6 | 11.3 | 0.00 | 0.03 | 0.00 | 83 | 1011.8 |
| 20260504180513 | 12 | 354 | 1.6 | 11.3 | 0.00 | 0.03 | 0.00 | 83 | 1011.8 |
| 20260504180014 | 12 | 20 | 1.6 | 4.8 | 0.00 | 0.03 | 0.00 | 82 | 1011.7 |
| 20260504175515 | 12 | 357 | 1.6 | 8.0 | 0.00 | 0.03 | 0.00 | 82 | 1011.7 |
| 20260504175012 | 13 | 33 | 1.6 | 12.9 | 0.00 | 0.03 | 0.00 | 81 | 1011.5 |
| 20260504174512 | 13 | 317 | 1.6 | 12.9 | 0.00 | 0.03 | 0.00 | 81 | 1011.5 |
| 20260504174013 | 13 | 46 | 3.2 | 8.0 | 0.00 | 0.03 | 0.00 | 81 | 1011.4 |
| 20260504173514 | 13 | 327 | 1.6 | 12.9 | 0.00 | 0.03 | 0.00 | 81 | 1011.5 |
| 20260504173012 | 13 | 307 | 1.6 | 11.3 | 0.00 | 0.03 | 0.00 | 81 | 1011.5 |
| 20260504172510 | 13 | 343 | 1.6 | 14.5 | 0.00 | 0.03 | 0.00 | 80 | 1011.4 |
| 20260504172009 | 13 | 360 | 3.2 | 14.5 | 0.00 | 0.03 | 0.00 | 80 | 1011.5 |
| 20260504171509 | 13 | 327 | 1.6 | 11.3 | 0.00 | 0.03 | 0.00 | 80 | 1011.4 |
| 20260504171012 | 13 | 290 | 1.6 | 8.0 | 0.00 | 0.03 | 0.00 | 80 | 1011.3 |
| 20260504170609 | 13 | 301 | 1.6 | 8.0 | 0.00 | 0.03 | 0.00 | 80 | 1011.3 |
| 20260504151056 | 13 | 239 | 1.6 | 11.3 | 0.00 | 0.03 | 0.00 | 77 | 1010.5 |
| 20260504150556 | 13 | 336 | 3.2 | 11.3 | 0.00 | 0.03 | 0.00 | 78 | 1010.6 |
| 20260504141047 | 14 | 314 | 3.2 | 11.3 | 0.00 | 0.03 | 0.00 | 77 | 1010.2 |
| 20260504140547 | 14 | 16 | 3.2 | 16.1 | 0.00 | 0.03 | 0.00 | 77 | 1010.1 |
| 20260504130538 | 14 | 288 | 1.6 | 11.3 | 0.00 | 0.03 | 0.00 | 75 | 1009.6 |